EDT,Max TemperatureF,Mean TemperatureF,Min TemperatureF,Max Dew PointF,MeanDew PointF,Min DewpointF,Max Humidity, Mean Humidity, Min Humidity, Max Sea Level PressureIn, Mean Sea Level PressureIn, Min Sea Level PressureIn, Max VisibilityMiles, Mean VisibilityMiles, Min VisibilityMiles, Max Wind SpeedMPH, Mean Wind SpeedMPH, Max Gust SpeedMPH,PrecipitationIn, CloudCover, Events, WindDirDegrees
2012-10-1,86,82,77,77,75,73,85,78,70,29.89,29.82,29.78,10,10,5,23,13,31,0.29,4,Rain-Thunderstorm,199
2012-10-2,85,80,75,77,75,72,91,83,74,30.06,29.94,29.86,10,9,2,25,13,32,1.04,5,Rain,185
2012-10-3,87,83,79,79,76,73,85,80,75,30.13,30.07,30.04,10,10,10,15,8,20,0.00,0,,112
2012-10-4,88,85,81,78,76,74,88,78,68,30.14,30.09,30.04,10,10,10,15,8,21,0.00,1,,90
2012-10-5,88,85,81,78,76,74,88,78,68,30.07,30.00,29.93,10,10,10,16,9,21,T,1,,81
2012-10-6,87,83,79,78,75,73,85,77,68,29.97,29.92,29.86,10,10,5,12,7,18,0.06,2,Rain,81
2012-10-7,88,84,79,77,75,72,91,80,68,29.96,29.92,29.88,10,10,2,15,6,22,0.14,2,Rain-Thunderstorm,65
2012-10-8,89,84,78,78,76,74,91,81,70,30.00,29.95,29.91,10,10,10,13,7,22,0.00,2,,79
2012-10-9,87,83,78,79,76,72,91,80,68,30.03,29.99,29.95,10,10,4,15,4,21,0.05,2,Rain,61
2012-10-10,86,83,79,77,75,73,85,78,70,30.06,30.02,29.98,10,10,10,14,5,18,0.09,1,,48
2012-10-11,86,83,79,75,71,66,79,67,55,30.12,30.06,30.01,10,10,10,16,10,24,0.01,2,Rain,49
2012-10-12,86,82,78,70,67,64,71,63,55,30.12,30.07,30.04,10,10,10,18,11,25,0.00,1,,39
2012-10-13,85,81,77,72,69,65,79,67,55,30.09,30.05,29.99,10,10,10,21,13,37,0.00,2,,44
2012-10-14,86,82,77,76,74,70,85,78,70,30.02,29.96,29.90,10,10,10,17,10,25,T,1,,47
2012-10-15,87,81,74,77,75,72,97,81,65,29.93,29.86,29.81,10,9,2,23,7,26,0.69,4,Rain-Thunderstorm,48
2012-10-16,86,83,79,75,73,70,85,71,57,29.88,29.83,29.80,10,10,10,13,6,16,0.00,1,,22
2012-10-17,85,82,78,76,74,71,91,80,69,29.89,29.85,29.81,10,10,10,18,5,24,T,4,Rain,92
2012-10-18,84,79,73,77,75,70,91,83,74,29.90,29.86,29.81,10,9,2,21,6,25,0.36,3,Rain-Thunderstorm,167
2012-10-19,86,83,79,79,75,72,91,78,65,29.91,29.87,29.84,10,10,6,9,4,13,0.08,3,Rain,222
2012-10-20,86,82,78,76,73,71,91,78,65,29.94,29.90,29.85,10,10,10,14,5,18,0.00,0,,353
2012-10-21,86,81,76,75,73,68,91,76,61,29.99,29.94,29.88,10,10,10,15,8,22,0.00,2,,45
2012-10-22,85,81,77,72,68,64,76,66,55,29.99,29.95,29.92,10,10,10,21,11,29,0.00,1,,54
2012-10-23,86,82,77,72,70,67,79,67,55,29.96,29.92,29.86,10,10,10,18,12,28,0.00,0,,58
2012-10-24,86,80,74,73,72,68,88,75,61,29.91,29.85,29.79,10,10,10,22,13,31,T,0,,44
2012-10-25,80,76,72,73,71,66,82,78,74,29.81,29.75,29.67,10,9,1,25,16,39,0.51,3,Rain,23
2012-10-26,81,77,72,72,70,68,93,80,67,29.70,29.66,29.63,10,10,10,24,19,33,0.00,4,,336
2012-10-27,82,80,77,69,66,64,74,66,58,29.79,29.72,29.66,10,10,10,29,19,38,0.00,1,,317
2012-10-28,80,77,74,68,65,60,74,67,60,29.85,29.80,29.76,10,10,10,25,16,33,T,2,,310
2012-10-29,74,72,70,61,57,54,68,61,53,29.92,29.87,29.83,10,10,10,23,16,31,0.00,4,,320
2012-10-30,75,73,70,61,56,53,68,61,53,30.05,29.95,29.88,10,10,10,20,12,26,0.00,5,,323
2012-10-31,76,71,66,62,57,55,78,64,50,30.09,30.05,30.02,10,10,10,15,6,18,0.00,1,,310